Location: Pasadena, ca
(34.1243°N, 118.1037°W)
Time: 01:02:32
(UTC-07:00)

Envisat - Pass Details

Date: 15 October 2017
Orbit: 764 x 766 km, 98.2° (Epoch: 22 October)

Event Time Altitude Azimuth Distance (km) Brightness Sun altitude
Exits shadow 20:03:28 19° 25° (NNE) 1,760 4.7 -22.6°
Drops below altitude 10° 20:05:12 10° 11° (N) 2,306 5.4 -23.0°
Sets 20:07:45 0° 1° (N) 3,236 6.3 -23.5°
